Time,TemperatureF,DewpointF,PressureIn,WindDirection,WindDirectionDegrees,WindSpeedMPH,WindSpeedGustMPH,Humidity,HourlyPrecipIn,Conditions,Clouds,dailyrainin,SoftwareType,DateUTC
2013-01-20 09:45:00,17.7,6.9,30.09,WNW,289,14.0,26.0,62,0.00,,,0.00,Wunderground v.1.15,2013-01-20 14:45:00,
2013-01-20 09:46:00,17.7,6.9,30.09,WNW,286,15.0,26.0,62,0.00,,,0.00,Wunderground v.1.15,2013-01-20 14:46:00,
2013-01-20 09:50:00,17.8,7.0,30.09,West,278,15.0,26.0,62,0.00,,,0.00,Wunderground v.1.15,2013-01-20 14:50:00,
2013-01-20 09:52:00,17.9,6.7,30.09,SW,227,14.0,26.0,61,0.00,,,0.00,Wunderground v.1.15,2013-01-20 14:52:00,
2013-01-20 09:56:00,18.1,7.3,30.09,West,281,12.0,26.0,62,0.00,,,0.00,Wunderground v.1.15,2013-01-20 14:56:00,
2013-01-20 09:57:00,18.1,6.9,30.10,WNW,287,12.0,26.0,61,0.00,,,0.00,Wunderground v.1.15,2013-01-20 14:57:00,
2013-01-20 10:00:00,18.2,7.3,30.10,West,277,13.0,13.0,62,0.00,,,0.00,Wunderground v.1.15,2013-01-20 15:00:00,
2013-01-20 10:02:00,18.3,7.4,30.10,West,275,12.0,14.0,62,0.00,,,0.00,Wunderground v.1.15,2013-01-20 15:02:00,
2013-01-20 10:03:00,18.3,7.4,30.10,WNW,283,13.0,20.0,62,0.00,,,0.00,Wunderground v.1.15,2013-01-20 15:03:00,
2013-01-20 10:06:00,18.2,7.3,30.10,West,260,14.0,20.0,62,0.00,,,0.00,Wunderground v.1.15,2013-01-20 15:06:00,
2013-01-20 10:08:00,18.3,7.4,30.10,West,260,14.0,20.0,62,0.00,,,0.00,Wunderground v.1.15,2013-01-20 15:08:00,
2013-01-20 10:11:00,18.3,6.7,30.10,WSW,247,13.0,14.0,60,0.00,,,0.00,Wunderground v.1.15,2013-01-20 15:11:00,
2013-01-20 10:13:00,18.3,7.1,30.10,WSW,250,12.0,19.0,61,0.00,,,0.00,Wunderground v.1.15,2013-01-20 15:13:00,
2013-01-20 10:17:00,18.4,7.2,30.10,South,172,13.0,19.0,61,0.00,,,0.00,Wunderground v.1.15,2013-01-20 15:17:00,
2013-01-20 10:18:00,18.4,7.2,30.10,West,270,13.0,21.0,61,0.00,,,0.00,Wunderground v.1.15,2013-01-20 15:18:00,
2013-01-20 10:24:00,18.8,7.9,30.11,NW,306,12.0,18.0,62,0.00,,,0.00,Wunderground v.1.15,2013-01-20 15:24:00,
2013-01-20 10:26:00,18.9,7.7,30.11,West,279,11.0,18.0,61,0.00,,,0.00,Wunderground v.1.15,2013-01-20 15:26:00,
2013-01-20 10:27:00,19.0,8.1,30.11,WNW,299,10.0,18.0,62,0.00,,,0.00,Wunderground v.1.15,2013-01-20 15:27:00,
2013-01-20 10:31:00,19.1,7.8,30.11,NW,313,9.0,9.0,61,0.00,,,0.00,Wunderground v.1.15,2013-01-20 15:31:00,
2013-01-20 10:32:00,19.1,7.8,30.10,WNW,284,10.0,10.0,61,0.00,,,0.00,Wunderground v.1.15,2013-01-20 15:32:00,
2013-01-20 10:35:00,19.1,7.5,30.11,WNW,284,10.0,17.0,60,0.00,,,0.00,Wunderground v.1.15,2013-01-20 15:35:00,
2013-01-20 10:36:00,19.0,7.7,30.11,West,274,11.0,19.0,61,0.00,,,0.00,Wunderground v.1.15,2013-01-20 15:36:00,
2013-01-20 10:38:00,19.1,7.8,30.11,West,267,11.0,19.0,61,0.00,,,0.00,Wunderground v.1.15,2013-01-20 15:38:00,
2013-01-20 10:39:00,19.2,8.3,30.11,West,260,11.0,19.0,62,0.00,,,0.00,Wunderground v.1.15,2013-01-20 15:39:00,
2013-01-20 10:40:00,19.2,7.9,30.11,South,171,10.0,11.0,61,0.00,,,0.00,Wunderground v.1.15,2013-01-20 15:40:00,
2013-01-20 10:44:00,19.3,8.0,30.11,West,271,11.0,21.0,61,0.00,,,0.00,Wunderground v.1.15,2013-01-20 15:44:00,
2013-01-20 10:47:00,19.4,8.5,30.12,NW,318,11.0,26.0,62,0.00,,,0.00,Wunderground v.1.15,2013-01-20 15:47:00,
2013-01-20 10:49:00,19.7,8.4,30.12,WSW,249,11.0,26.0,61,0.00,,,0.00,Wunderground v.1.15,2013-01-20 15:49:00,
2013-01-20 10:53:00,19.7,8.0,30.11,WNW,283,11.0,26.0,60,0.00,,,0.00,Wunderground v.1.15,2013-01-20 15:53:00,
2013-01-20 10:54:00,19.8,8.1,30.11,North,355,10.0,26.0,60,0.00,,,0.00,Wunderground v.1.15,2013-01-20 15:54:00,
2013-01-20 10:59:00,20.0,8.3,30.12,West,277,9.0,26.0,60,0.00,,,0.00,Wunderground v.1.15,2013-01-20 15:59:00,
2013-01-20 11:02:00,20.0,8.3,30.12,NE,42,9.0,26.0,60,0.00,,,0.00,Wunderground v.1.15,2013-01-20 16:02:00,
2013-01-20 11:04:00,19.9,8.6,30.12,West,278,10.0,26.0,61,0.00,,,0.00,Wunderground v.1.15,2013-01-20 16:04:00,
2013-01-20 11:07:00,19.8,8.5,30.12,West,270,10.0,26.0,61,0.00,,,0.00,Wunderground v.1.15,2013-01-20 16:07:00,
2013-01-20 11:08:00,19.8,8.1,30.12,West,275,11.0,26.0,60,0.00,,,0.00,Wunderground v.1.15,2013-01-20 16:08:00,
2013-01-20 11:10:00,20.0,8.7,30.12,WSW,254,10.0,26.0,61,0.00,,,0.00,Wunderground v.1.15,2013-01-20 16:10:00,
2013-01-20 11:11:00,20.1,8.8,30.12,NNW,328,10.0,26.0,61,0.00,,,0.00,Wunderground v.1.15,2013-01-20 16:11:00,
2013-01-20 11:12:00,20.2,8.5,30.12,West,275,10.0,26.0,60,0.00,,,0.00,Wunderground v.1.15,2013-01-20 16:12:00,
2013-01-20 11:15:00,20.3,8.6,30.12,West,270,9.0,26.0,60,0.00,,,0.00,Wunderground v.1.15,2013-01-20 16:15:00,
2013-01-20 11:16:00,20.2,8.5,30.12,West,277,9.0,26.0,60,0.00,,,0.00,Wunderground v.1.15,2013-01-20 16:16:00,
2013-01-20 11:17:00,20.2,8.5,30.12,WNW,303,9.0,26.0,60,0.00,,,0.00,Wunderground v.1.15,2013-01-20 16:17:00,
2013-01-20 11:20:00,20.1,8.8,30.12,West,277,11.0,26.0,61,0.00,,,0.00,Wunderground v.1.15,2013-01-20 16:20:00,
2013-01-20 11:22:00,20.1,9.2,30.12,WSW,252,11.0,26.0,62,0.00,,,0.00,Wunderground v.1.15,2013-01-20 16:22:00,
2013-01-20 11:24:00,20.2,8.9,30.12,West,276,12.0,26.0,61,0.00,,,0.00,Wunderground v.1.15,2013-01-20 16:24:00,
2013-01-20 11:25:00,20.2,8.9,30.12,West,274,11.0,26.0,61,0.00,,,0.00,Wunderground v.1.15,2013-01-20 16:25:00,
2013-01-20 11:30:00,20.0,8.7,30.12,WNW,296,11.0,11.0,61,0.00,,,0.00,Wunderground v.1.15,2013-01-20 16:30:00,
2013-01-20 11:32:00,20.0,8.7,30.12,West,276,10.0,26.0,61,0.00,,,0.00,Wunderground v.1.15,2013-01-20 16:32:00,
2013-01-20 11:34:00,20.1,8.8,30.13,NW,308,10.0,26.0,61,0.00,,,0.00,Wunderground v.1.15,2013-01-20 16:34:00,
2013-01-20 11:36:00,20.1,8.8,30.13,West,274,8.0,26.0,61,0.00,,,0.00,Wunderground v.1.15,2013-01-20 16:36:00,
2013-01-20 11:39:00,20.1,8.8,30.13,WNW,296,8.0,26.0,61,0.00,,,0.00,Wunderground v.1.15,2013-01-20 16:39:00,
2013-01-20 11:40:00,20.0,8.7,30.13,West,275,7.0,13.0,61,0.00,,,0.00,Wunderground v.1.15,2013-01-20 16:40:00,
2013-01-20 11:44:00,19.9,8.6,30.13,West,279,9.0,26.0,61,0.00,,,0.00,Wunderground v.1.15,2013-01-20 16:44:00,
2013-01-20 11:45:00,19.8,8.5,30.13,West,274,10.0,26.0,61,0.00,,,0.00,Wunderground v.1.15,2013-01-20 16:45:00,
2013-01-20 11:48:00,19.8,9.2,30.13,West,277,11.0,26.0,63,0.00,,,0.00,Wunderground v.1.15,2013-01-20 16:48:00,
2013-01-20 11:49:00,19.9,9.0,30.13,WSW,258,11.0,11.0,62,0.00,,,0.00,Wunderground v.1.15,2013-01-20 16:49:00,
2013-01-20 11:52:00,19.9,9.3,30.13,West,270,12.0,26.0,63,0.00,,,0.00,Wunderground v.1.15,2013-01-20 16:52:00,
2013-01-20 11:54:00,19.8,9.2,30.14,West,277,12.0,26.0,63,0.00,,,0.00,Wunderground v.1.15,2013-01-20 16:54:00,
2013-01-20 11:58:00,19.9,9.0,30.14,West,275,13.0,26.0,62,0.00,,,0.00,Wunderground v.1.15,2013-01-20 16:58:00,
2013-01-20 11:59:00,19.8,8.9,30.14,WNW,296,14.0,14.0,62,0.00,,,0.00,Wunderground v.1.15,2013-01-20 16:59:00,
2013-01-20 12:02:00,19.8,8.5,30.14,WNW,282,12.0,26.0,61,0.00,,,0.00,Wunderground v.1.15,2013-01-20 17:02:00,
2013-01-20 12:06:00,19.9,9.0,30.14,West,262,12.0,26.0,62,0.00,,,0.00,Wunderground v.1.15,2013-01-20 17:06:00,
2013-01-20 12:08:00,19.9,9.0,30.14,West,272,11.0,26.0,62,0.00,,,0.00,Wunderground v.1.15,2013-01-20 17:08:00,
2013-01-20 12:11:00,19.9,9.0,30.14,West,277,11.0,12.0,62,0.00,,,0.00,Wunderground v.1.15,2013-01-20 17:11:00,
2013-01-20 12:12:00,19.9,9.0,30.14,West,268,11.0,26.0,62,0.00,,,0.00,Wunderground v.1.15,2013-01-20 17:12:00,
2013-01-20 12:13:00,19.9,8.6,30.14,West,270,11.0,26.0,61,0.00,,,0.00,Wunderground v.1.15,2013-01-20 17:13:00,
2013-01-20 12:18:00,19.9,9.0,30.14,West,271,9.0,26.0,62,0.00,,,0.00,Wunderground v.1.15,2013-01-20 17:18:00,
2013-01-20 12:19:00,20.0,9.4,30.14,WNW,282,9.0,26.0,63,0.00,,,0.00,Wunderground v.1.15,2013-01-20 17:19:00,
2013-01-20 12:22:00,19.9,9.0,30.14,NNW,346,9.0,26.0,62,0.00,,,0.00,Wunderground v.1.15,2013-01-20 17:22:00,
2013-01-20 12:23:00,20.0,9.1,30.14,West,274,8.0,26.0,62,0.00,,,0.00,Wunderground v.1.15,2013-01-20 17:23:00,
2013-01-20 12:27:00,20.0,9.4,30.14,WSW,255,10.0,26.0,63,0.00,,,0.00,Wunderground v.1.15,2013-01-20 17:27:00,
2013-01-20 12:30:00,19.9,9.3,30.14,SW,218,11.0,26.0,63,0.00,,,0.00,Wunderground v.1.15,2013-01-20 17:30:00,
2013-01-20 12:31:00,19.8,8.9,30.14,WSW,257,11.0,26.0,62,0.00,,,0.00,Wunderground v.1.15,2013-01-20 17:31:00,
2013-01-20 12:32:00,19.8,9.6,30.14,West,277,11.0,26.0,64,0.00,,,0.00,Wunderground v.1.15,2013-01-20 17:32:00,
2013-01-20 12:33:00,19.8,9.6,30.14,West,270,11.0,26.0,64,0.00,,,0.00,Wunderground v.1.15,2013-01-20 17:33:00,
2013-01-20 12:36:00,19.8,9.2,30.14,West,263,9.0,26.0,63,0.00,,,0.00,Wunderground v.1.15,2013-01-20 17:36:00,
2013-01-20 12:38:00,19.8,9.2,30.14,West,277,9.0,26.0,63,0.00,,,0.00,Wunderground v.1.15,2013-01-20 17:38:00,
2013-01-20 12:40:00,19.8,9.6,30.13,SW,225,8.0,8.0,64,0.00,,,0.00,Wunderground v.1.15,2013-01-20 17:40:00,
2013-01-20 12:41:00,19.8,9.6,30.14,West,279,8.0,16.0,64,0.00,,,0.00,Wunderground v.1.15,2013-01-20 17:41:00,
2013-01-20 12:42:00,19.7,9.5,30.13,West,266,9.0,26.0,64,0.00,,,0.00,Wunderground v.1.15,2013-01-20 17:42:00,
2013-01-20 12:45:00,19.6,9.4,30.14,WSW,237,11.0,26.0,64,0.00,,,0.00,Wunderground v.1.15,2013-01-20 17:45:00,
2013-01-20 12:46:00,19.5,9.3,30.14,West,281,11.0,26.0,64,0.00,,,0.00,Wunderground v.1.15,2013-01-20 17:46:00,
2013-01-20 12:47:00,19.6,10.1,30.14,WNW,284,11.0,26.0,66,0.00,,,0.00,Wunderground v.1.15,2013-01-20 17:47:00,
2013-01-20 12:51:00,19.6,10.1,30.14,WSW,244,11.0,26.0,66,0.00,,,0.00,Wunderground v.1.15,2013-01-20 17:51:00,
2013-01-20 12:52:00,19.7,9.8,30.14,West,264,9.0,26.0,65,0.00,,,0.00,Wunderground v.1.15,2013-01-20 17:52:00,
2013-01-20 12:55:00,19.7,9.5,30.14,West,270,10.0,26.0,64,0.00,,,0.00,Wunderground v.1.15,2013-01-20 17:55:00,
2013-01-20 12:56:00,19.6,9.0,30.14,West,273,11.0,26.0,63,0.00,,,0.00,Wunderground v.1.15,2013-01-20 17:56:00,
2013-01-20 12:58:00,19.6,9.4,30.14,WNW,294,11.0,26.0,64,0.00,,,0.00,Wunderground v.1.15,2013-01-20 17:58:00,
2013-01-20 12:59:00,19.6,9.7,30.14,West,268,11.0,26.0,65,0.00,,,0.00,Wunderground v.1.15,2013-01-20 17:59:00,
2013-01-20 13:01:00,19.6,9.7,30.14,West,267,12.0,26.0,65,0.00,,,0.00,Wunderground v.1.15,2013-01-20 18:01:00,
2013-01-20 13:02:00,19.6,9.4,30.14,West,271,12.0,26.0,64,0.00,,,0.00,Wunderground v.1.15,2013-01-20 18:02:00,
2013-01-20 13:06:00,19.5,9.6,30.14,West,263,11.0,26.0,65,0.00,,,0.00,Wunderground v.1.15,2013-01-20 18:06:00,
2013-01-20 13:07:00,19.5,9.6,30.14,WNW,285,11.0,26.0,65,0.00,,,0.00,Wunderground v.1.15,2013-01-20 18:07:00,
2013-01-20 13:09:00,19.4,9.5,30.14,West,270,13.0,26.0,65,0.00,,,0.00,Wunderground v.1.15,2013-01-20 18:09:00,
2013-01-20 13:13:00,19.6,9.7,30.14,West,268,13.0,26.0,65,0.00,,,0.00,Wunderground v.1.15,2013-01-20 18:13:00,
2013-01-20 13:14:00,19.6,9.7,30.14,West,265,13.0,26.0,65,0.00,,,0.00,Wunderground v.1.15,2013-01-20 18:14:00,
2013-01-20 13:17:00,19.8,9.9,30.13,WNW,298,11.0,26.0,65,0.00,,,0.00,Wunderground v.1.15,2013-01-20 18:17:00,
2013-01-20 13:18:00,19.7,9.5,30.13,NW,314,10.0,26.0,64,0.00,,,0.00,Wunderground v.1.15,2013-01-20 18:18:00,
2013-01-20 13:22:00,19.6,9.7,30.13,West,279,9.0,26.0,65,0.00,,,0.00,Wunderground v.1.15,2013-01-20 18:22:00,
2013-01-20 13:25:00,19.6,9.7,30.13,WNW,283,10.0,26.0,65,0.00,,,0.00,Wunderground v.1.15,2013-01-20 18:25:00,
2013-01-20 13:26:00,19.5,9.6,30.13,WNW,284,11.0,26.0,65,0.00,,,0.00,Wunderground v.1.15,2013-01-20 18:26:00,
2013-01-20 13:28:00,19.5,9.6,30.13,West,279,11.0,26.0,65,0.00,,,0.00,Wunderground v.1.15,2013-01-20 18:28:00,
2013-01-20 13:31:00,19.5,9.6,30.13,West,280,11.0,26.0,65,0.00,,,0.00,Wunderground v.1.15,2013-01-20 18:31:00,
2013-01-20 13:34:00,19.6,9.7,30.13,West,265,11.0,26.0,65,0.00,,,0.00,Wunderground v.1.15,2013-01-20 18:34:00,
2013-01-20 13:36:00,19.6,9.7,30.13,West,275,11.0,26.0,65,0.00,,,0.00,Wunderground v.1.15,2013-01-20 18:36:00,
2013-01-20 13:37:00,19.7,9.8,30.13,WNW,287,10.0,26.0,65,0.00,,,0.00,Wunderground v.1.15,2013-01-20 18:37:00,
2013-01-20 13:39:00,19.7,9.8,30.13,WSW,249,10.0,26.0,65,0.00,,,0.00,Wunderground v.1.15,2013-01-20 18:39:00,
2013-01-20 13:40:00,19.8,10.3,30.13,West,270,9.0,26.0,66,0.00,,,0.00,Wunderground v.1.15,2013-01-20 18:40:00,
2013-01-20 13:41:00,19.8,10.3,30.13,WNW,294,10.0,26.0,66,0.00,,,0.00,Wunderground v.1.15,2013-01-20 18:41:00,
2013-01-20 13:46:00,19.7,10.2,30.12,West,278,9.0,26.0,66,0.00,,,0.00,Wunderground v.1.15,2013-01-20 18:46:00,
2013-01-20 13:47:00,19.8,10.3,30.12,WNW,283,9.0,26.0,66,0.00,,,0.00,Wunderground v.1.15,2013-01-20 18:47:00,
2013-01-20 13:50:00,19.9,10.4,30.12,NW,309,10.0,26.0,66,0.00,,,0.00,Wunderground v.1.15,2013-01-20 18:50:00,
2013-01-20 13:51:00,19.9,10.4,30.12,West,267,9.0,26.0,66,0.00,,,0.00,Wunderground v.1.15,2013-01-20 18:51:00,
2013-01-20 13:54:00,20.1,9.5,30.12,West,272,9.0,26.0,63,0.00,,,0.00,Wunderground v.1.15,2013-01-20 18:54:00,
2013-01-20 13:55:00,20.1,9.2,30.12,West,280,9.0,26.0,62,0.00,,,0.00,Wunderground v.1.15,2013-01-20 18:55:00,
2013-01-20 13:56:00,20.2,10.0,30.12,West,276,9.0,26.0,64,0.00,,,0.00,Wunderground v.1.15,2013-01-20 18:56:00,
2013-01-20 13:59:00,20.2,9.6,30.12,WNW,284,10.0,26.0,63,0.00,,,0.00,Wunderground v.1.15,2013-01-20 18:59:00,
2013-01-20 14:00:00,20.2,9.6,30.12,WNW,282,10.0,26.0,63,0.00,,,0.00,Wunderground v.1.15,2013-01-20 19:00:00,
2013-01-20 14:03:00,20.3,10.1,30.12,WNW,286,10.0,26.0,64,0.00,,,0.00,Wunderground v.1.15,2013-01-20 19:03:00,
2013-01-20 14:06:00,20.5,9.5,30.12,West,273,9.0,26.0,62,0.00,,,0.00,Wunderground v.1.15,2013-01-20 19:06:00,
2013-01-20 14:07:00,20.6,9.6,30.12,NW,322,9.0,26.0,62,0.00,,,0.00,Wunderground v.1.15,2013-01-20 19:07:00,
2013-01-20 14:08:00,20.6,9.3,30.12,NW,319,8.0,26.0,61,0.00,,,0.00,Wunderground v.1.15,2013-01-20 19:08:00,
2013-01-20 14:11:00,20.7,9.4,30.12,West,259,7.0,26.0,61,0.00,,,0.00,Wunderground v.1.15,2013-01-20 19:11:00,
2013-01-20 14:12:00,20.8,9.8,30.12,West,278,7.0,26.0,62,0.00,,,0.00,Wunderground v.1.15,2013-01-20 19:12:00,
2013-01-20 14:14:00,20.8,9.8,30.13,West,277,8.0,26.0,62,0.00,,,0.00,Wunderground v.1.15,2013-01-20 19:14:00,
2013-01-20 14:17:00,20.7,9.0,30.13,WNW,284,9.0,26.0,60,0.00,,,0.00,Wunderground v.1.15,2013-01-20 19:17:00,
2013-01-20 14:18:00,20.7,8.6,30.13,West,270,9.0,26.0,59,0.00,,,0.00,Wunderground v.1.15,2013-01-20 19:18:00,
2013-01-20 14:22:00,20.7,9.0,30.13,WNW,282,9.0,26.0,60,0.00,,,0.00,Wunderground v.1.15,2013-01-20 19:22:00,
2013-01-20 14:23:00,20.7,9.0,30.13,West,270,9.0,26.0,60,0.00,,,0.00,Wunderground v.1.15,2013-01-20 19:23:00,
2013-01-20 14:24:00,20.8,9.1,30.13,WNW,284,8.0,26.0,60,0.00,,,0.00,Wunderground v.1.15,2013-01-20 19:24:00,
2013-01-20 14:27:00,20.7,8.6,30.13,West,281,8.0,26.0,59,0.00,,,0.00,Wunderground v.1.15,2013-01-20 19:27:00,
2013-01-20 14:28:00,20.7,8.6,30.13,ENE,77,8.0,26.0,59,0.00,,,0.00,Wunderground v.1.15,2013-01-20 19:28:00,
2013-01-20 14:32:00,20.8,8.7,30.13,West,263,7.0,12.0,59,0.00,,,0.00,Wunderground v.1.15,2013-01-20 19:32:00,
2013-01-20 14:33:00,20.7,8.6,30.13,West,277,8.0,26.0,59,0.00,,,0.00,Wunderground v.1.15,2013-01-20 19:33:00,
2013-01-20 14:36:00,20.7,8.6,30.13,West,281,8.0,26.0,59,0.00,,,0.00,Wunderground v.1.15,2013-01-20 19:36:00,
2013-01-20 14:41:00,20.6,8.9,30.13,WNW,303,8.0,10.0,60,0.00,,,0.00,Wunderground v.1.15,2013-01-20 19:41:00,
2013-01-20 14:46:00,20.6,8.5,30.13,West,263,7.0,26.0,59,0.00,,,0.00,Wunderground v.1.15,2013-01-20 19:46:00,
2013-01-20 14:47:00,20.7,8.6,30.13,West,270,7.0,26.0,59,0.00,,,0.00,Wunderground v.1.15,2013-01-20 19:47:00,
2013-01-20 14:50:00,20.7,8.2,30.13,West,273,8.0,26.0,58,0.00,,,0.00,Wunderground v.1.15,2013-01-20 19:50:00,
2013-01-20 14:52:00,20.8,8.7,30.14,WNW,284,9.0,26.0,59,0.00,,,0.00,Wunderground v.1.15,2013-01-20 19:52:00,
2013-01-20 14:55:00,20.8,8.7,30.14,WNW,291,11.0,26.0,59,0.00,,,0.00,Wunderground v.1.15,2013-01-20 19:55:00,
2013-01-20 14:56:00,20.8,9.1,30.14,WSW,244,12.0,26.0,60,0.00,,,0.00,Wunderground v.1.15,2013-01-20 19:56:00,
2013-01-20 14:57:00,20.9,9.5,30.14,West,268,13.0,26.0,61,0.00,,,0.00,Wunderground v.1.15,2013-01-20 19:57:00,
2013-01-20 15:01:00,20.9,8.8,30.14,West,268,13.0,26.0,59,0.00,,,0.00,Wunderground v.1.15,2013-01-20 20:01:00,
2013-01-20 15:03:00,20.8,9.1,30.13,SW,235,14.0,26.0,60,0.00,,,0.00,Wunderground v.1.15,2013-01-20 20:03:00,
2013-01-20 15:04:00,20.8,9.1,30.13,West,270,14.0,26.0,60,0.00,,,0.00,Wunderground v.1.15,2013-01-20 20:04:00,
2013-01-20 15:09:00,20.7,9.4,30.14,West,271,17.0,17.0,61,0.00,,,0.00,Wunderground v.1.15,2013-01-20 20:09:00,
2013-01-20 15:10:00,20.7,9.0,30.14,West,260,16.0,26.0,60,0.00,,,0.00,Wunderground v.1.15,2013-01-20 20:10:00,
2013-01-20 15:13:00,20.8,9.5,30.15,West,277,15.0,26.0,61,0.00,,,0.00,Wunderground v.1.15,2013-01-20 20:13:00,
2013-01-20 15:17:00,20.8,8.7,30.14,West,273,13.0,26.0,59,0.00,,,0.00,Wunderground v.1.15,2013-01-20 20:17:00,
2013-01-20 15:18:00,20.8,9.1,30.14,West,277,13.0,26.0,60,0.00,,,0.00,Wunderground v.1.15,2013-01-20 20:18:00,
2013-01-20 15:19:00,20.8,9.5,30.14,WSW,239,12.0,26.0,61,0.00,,,0.00,Wunderground v.1.15,2013-01-20 20:19:00,
2013-01-20 15:20:00,20.7,8.6,30.14,West,281,13.0,26.0,59,0.00,,,0.00,Wunderground v.1.15,2013-01-20 20:20:00,
2013-01-20 15:23:00,20.6,8.5,30.14,West,272,14.0,26.0,59,0.00,,,0.00,Wunderground v.1.15,2013-01-20 20:23:00,
2013-01-20 15:24:00,20.7,8.6,30.14,WSW,239,13.0,26.0,59,0.00,,,0.00,Wunderground v.1.15,2013-01-20 20:24:00,
2013-01-20 15:25:00,20.9,8.8,30.14,West,277,13.0,26.0,59,0.00,,,0.00,Wunderground v.1.15,2013-01-20 20:25:00,
2013-01-20 15:28:00,20.9,8.4,30.14,WSW,257,14.0,26.0,58,0.00,,,0.00,Wunderground v.1.15,2013-01-20 20:28:00,
2013-01-20 15:29:00,20.9,8.4,30.15,WSW,252,13.0,13.0,58,0.00,,,0.00,Wunderground v.1.15,2013-01-20 20:29:00,
2013-01-20 15:30:00,20.9,8.0,30.14,WSW,244,12.0,26.0,57,0.00,,,0.00,Wunderground v.1.15,2013-01-20 20:30:00,
2013-01-20 15:33:00,20.9,8.0,30.15,WNW,282,12.0,26.0,57,0.00,,,0.00,Wunderground v.1.15,2013-01-20 20:33:00,
2013-01-20 15:36:00,20.9,8.0,30.14,West,273,12.0,26.0,57,0.00,,,0.00,Wunderground v.1.15,2013-01-20 20:36:00,
2013-01-20 15:37:00,20.9,8.0,30.14,North,354,12.0,26.0,57,0.00,,,0.00,Wunderground v.1.15,2013-01-20 20:37:00,
2013-01-20 15:38:00,20.9,8.0,30.15,ENE,76,11.0,26.0,57,0.00,,,0.00,Wunderground v.1.15,2013-01-20 20:38:00,
2013-01-20 15:39:00,21.0,8.5,30.15,West,281,10.0,26.0,58,0.00,,,0.00,Wunderground v.1.15,2013-01-20 20:39:00,
2013-01-20 15:41:00,20.9,8.0,30.15,West,273,10.0,26.0,57,0.00,,,0.00,Wunderground v.1.15,2013-01-20 20:41:00,
2013-01-20 15:43:00,20.8,7.6,30.15,West,273,8.0,26.0,56,0.00,,,0.00,Wunderground v.1.15,2013-01-20 20:43:00,
2013-01-20 15:45:00,20.8,7.9,30.15,West,274,8.0,26.0,57,0.00,,,0.00,Wunderground v.1.15,2013-01-20 20:45:00,
2013-01-20 15:46:00,20.9,8.4,30.15,West,277,7.0,26.0,58,0.00,,,0.00,Wunderground v.1.15,2013-01-20 20:46:00,
2013-01-20 15:50:00,20.9,7.6,30.15,West,272,10.0,26.0,56,0.00,,,0.00,Wunderground v.1.15,2013-01-20 20:50:00,
2013-01-20 15:53:00,20.8,7.6,30.15,West,263,11.0,26.0,56,0.00,,,0.00,Wunderground v.1.15,2013-01-20 20:53:00,
2013-01-20 15:54:00,20.8,7.9,30.15,West,275,12.0,26.0,57,0.00,,,0.00,Wunderground v.1.15,2013-01-20 20:54:00,
2013-01-20 15:57:00,20.8,7.9,30.16,West,279,12.0,26.0,57,0.00,,,0.00,Wunderground v.1.15,2013-01-20 20:57:00,
2013-01-20 15:59:00,20.9,7.6,30.16,WNW,291,11.0,26.0,56,0.00,,,0.00,Wunderground v.1.15,2013-01-20 20:59:00,
2013-01-20 16:02:00,20.9,8.0,30.16,West,277,10.0,26.0,57,0.00,,,0.00,Wunderground v.1.15,2013-01-20 21:02:00,
2013-01-20 16:03:00,20.8,7.9,30.16,West,270,10.0,26.0,57,0.00,,,0.00,Wunderground v.1.15,2013-01-20 21:03:00,
2013-01-20 16:07:00,20.8,8.3,30.16,West,281,10.0,26.0,58,0.00,,,0.00,Wunderground v.1.15,2013-01-20 21:07:00,
2013-01-20 16:08:00,20.8,8.3,30.16,West,274,11.0,26.0,58,0.00,,,0.00,Wunderground v.1.15,2013-01-20 21:08:00,
2013-01-20 16:12:00,20.6,7.8,30.16,NW,305,10.0,26.0,57,0.00,,,0.00,Wunderground v.1.15,2013-01-20 21:12:00,
2013-01-20 16:13:00,20.5,7.3,30.16,WNW,301,9.0,26.0,56,0.00,,,0.00,Wunderground v.1.15,2013-01-20 21:13:00,
2013-01-20 16:18:00,20.4,8.0,30.15,West,273,9.0,26.0,58,0.00,,,0.00,Wunderground v.1.15,2013-01-20 21:18:00,
2013-01-20 16:19:00,20.4,7.6,30.15,West,270,9.0,26.0,57,0.00,,,0.00,Wunderground v.1.15,2013-01-20 21:19:00,
2013-01-20 16:23:00,20.4,8.0,30.15,NW,315,8.0,26.0,58,0.00,,,0.00,Wunderground v.1.15,2013-01-20 21:23:00,
2013-01-20 16:25:00,20.2,7.8,30.15,West,272,9.0,26.0,58,0.00,,,0.00,Wunderground v.1.15,2013-01-20 21:25:00,
2013-01-20 16:28:00,20.2,8.1,30.15,West,278,9.0,26.0,59,0.00,,,0.00,Wunderground v.1.15,2013-01-20 21:28:00,
2013-01-20 16:29:00,20.2,8.1,30.15,West,259,9.0,9.0,59,0.00,,,0.00,Wunderground v.1.15,2013-01-20 21:29:00,
2013-01-20 16:32:00,20.2,8.1,30.15,WNW,293,10.0,26.0,59,0.00,,,0.00,Wunderground v.1.15,2013-01-20 21:32:00,
2013-01-20 16:33:00,20.2,8.5,30.15,WNW,291,11.0,26.0,60,0.00,,,0.00,Wunderground v.1.15,2013-01-20 21:33:00,
2013-01-20 16:34:00,20.2,8.5,30.15,West,271,11.0,26.0,60,0.00,,,0.00,Wunderground v.1.15,2013-01-20 21:34:00,
2013-01-20 16:38:00,20.1,8.1,30.15,WNW,296,12.0,26.0,59,0.00,,,0.00,Wunderground v.1.15,2013-01-20 21:38:00,
2013-01-20 16:40:00,20.1,8.4,30.15,West,278,12.0,12.0,60,0.00,,,0.00,Wunderground v.1.15,2013-01-20 21:40:00,
2013-01-20 16:41:00,20.1,8.4,30.15,West,272,13.0,26.0,60,0.00,,,0.00,Wunderground v.1.15,2013-01-20 21:41:00,
2013-01-20 16:42:00,20.1,8.8,30.15,West,273,13.0,26.0,61,0.00,,,0.00,Wunderground v.1.15,2013-01-20 21:42:00,
2013-01-20 16:45:00,20.1,8.4,30.15,West,279,11.0,26.0,60,0.00,,,0.00,Wunderground v.1.15,2013-01-20 21:45:00,
2013-01-20 16:49:00,20.1,8.1,30.15,West,273,10.0,26.0,59,0.00,,,0.00,Wunderground v.1.15,2013-01-20 21:49:00,
2013-01-20 16:50:00,20.1,8.4,30.16,West,275,9.0,26.0,60,0.00,,,0.00,Wunderground v.1.15,2013-01-20 21:50:00,
2013-01-20 16:52:00,20.1,8.8,30.16,WNW,285,9.0,26.0,61,0.00,,,0.00,Wunderground v.1.15,2013-01-20 21:52:00,
2013-01-20 16:56:00,20.2,8.9,30.16,West,275,8.0,26.0,61,0.00,,,0.00,Wunderground v.1.15,2013-01-20 21:56:00,
2013-01-20 16:57:00,20.1,8.4,30.16,West,279,8.0,26.0,60,0.00,,,0.00,Wunderground v.1.15,2013-01-20 21:57:00,
2013-01-20 16:58:00,20.0,8.0,30.16,North,350,8.0,26.0,59,0.00,,,0.00,Wunderground v.1.15,2013-01-20 21:58:00,
2013-01-20 17:01:00,19.8,7.8,30.16,WNW,286,8.0,26.0,59,0.00,,,0.00,Wunderground v.1.15,2013-01-20 22:01:00,
2013-01-20 17:03:00,19.8,8.1,30.16,NW,323,8.0,26.0,60,0.00,,,0.00,Wunderground v.1.15,2013-01-20 22:03:00,
2013-01-20 17:06:00,19.6,7.6,30.16,West,280,8.0,26.0,59,0.00,,,0.00,Wunderground v.1.15,2013-01-20 22:06:00,
2013-01-20 17:07:00,19.6,7.6,30.16,WNW,287,8.0,26.0,59,0.00,,,0.00,Wunderground v.1.15,2013-01-20 22:07:00,
2013-01-20 17:12:00,19.5,7.9,30.17,WSW,258,8.0,26.0,60,0.00,,,0.00,Wunderground v.1.15,2013-01-20 22:12:00,
2013-01-20 17:14:00,19.5,8.2,30.16,West,273,9.0,26.0,61,0.00,,,0.00,Wunderground v.1.15,2013-01-20 22:14:00,
2013-01-20 17:16:00,19.4,7.8,30.17,West,267,10.0,26.0,60,0.00,,,0.00,Wunderground v.1.15,2013-01-20 22:16:00,
2013-01-20 17:18:00,19.4,8.1,30.17,WNW,283,10.0,26.0,61,0.00,,,0.00,Wunderground v.1.15,2013-01-20 22:18:00,
2013-01-20 17:20:00,19.4,7.8,30.17,WNW,291,11.0,26.0,60,0.00,,,0.00,Wunderground v.1.15,2013-01-20 22:20:00,
2013-01-20 17:22:00,19.4,7.4,30.17,West,279,12.0,26.0,59,0.00,,,0.00,Wunderground v.1.15,2013-01-20 22:22:00,
2013-01-20 17:25:00,19.4,8.5,30.17,West,277,11.0,26.0,62,0.00,,,0.00,Wunderground v.1.15,2013-01-20 22:25:00,
2013-01-20 17:26:00,19.4,8.1,30.17,West,270,12.0,26.0,61,0.00,,,0.00,Wunderground v.1.15,2013-01-20 22:26:00,
2013-01-20 17:28:00,19.4,8.1,30.17,WSW,252,13.0,26.0,61,0.00,,,0.00,Wunderground v.1.15,2013-01-20 22:28:00,
2013-01-20 17:29:00,19.4,8.1,30.17,West,277,13.0,26.0,61,0.00,,,0.00,Wunderground v.1.15,2013-01-20 22:29:00,
2013-01-20 17:31:00,19.4,8.5,30.17,West,268,12.0,26.0,62,0.00,,,0.00,Wunderground v.1.15,2013-01-20 22:31:00,
2013-01-20 17:33:00,19.4,8.5,30.17,West,276,12.0,26.0,62,0.00,,,0.00,Wunderground v.1.15,2013-01-20 22:33:00,
2013-01-20 17:34:00,19.4,8.1,30.17,West,269,13.0,26.0,61,0.00,,,0.00,Wunderground v.1.15,2013-01-20 22:34:00,
2013-01-20 17:38:00,19.3,8.0,30.17,WNW,284,12.0,26.0,61,0.00,,,0.00,Wunderground v.1.15,2013-01-20 22:38:00,
2013-01-20 17:39:00,19.2,7.9,30.17,West,271,13.0,13.0,61,0.00,,,0.00,Wunderground v.1.15,2013-01-20 22:39:00,
2013-01-20 17:40:00,19.2,8.3,30.17,West,277,12.0,26.0,62,0.00,,,0.00,Wunderground v.1.15,2013-01-20 22:40:00,
2013-01-20 17:45:00,19.2,8.3,30.17,West,273,10.0,26.0,62,0.00,,,0.00,Wunderground v.1.15,2013-01-20 22:45:00,
2013-01-20 17:47:00,19.1,8.6,30.17,West,268,9.0,26.0,63,0.00,,,0.00,Wunderground v.1.15,2013-01-20 22:47:00,
2013-01-20 17:49:00,19.1,8.6,30.17,SW,223,8.0,26.0,63,0.00,,,0.00,Wunderground v.1.15,2013-01-20 22:49:00,
2013-01-20 17:50:00,19.1,8.2,30.17,West,277,8.0,26.0,62,0.00,,,0.00,Wunderground v.1.15,2013-01-20 22:50:00,
2013-01-20 17:52:00,19.0,8.1,30.17,West,262,8.0,26.0,62,0.00,,,0.00,Wunderground v.1.15,2013-01-20 22:52:00,
2013-01-20 17:55:00,19.0,8.1,30.17,North,354,8.0,26.0,62,0.00,,,0.00,Wunderground v.1.15,2013-01-20 22:55:00,
2013-01-20 17:56:00,19.0,8.1,30.17,West,266,8.0,26.0,62,0.00,,,0.00,Wunderground v.1.15,2013-01-20 22:56:00,
2013-01-20 17:58:00,19.0,8.5,30.17,NNW,336,7.0,26.0,63,0.00,,,0.00,Wunderground v.1.15,2013-01-20 22:58:00,
2013-01-20 18:02:00,19.0,8.8,30.18,West,268,7.0,26.0,64,0.00,,,0.00,Wunderground v.1.15,2013-01-20 23:02:00,
2013-01-20 18:05:00,19.0,8.5,30.18,NW,312,7.0,26.0,63,0.00,,,0.00,Wunderground v.1.15,2013-01-20 23:05:00,
2013-01-20 18:06:00,19.0,8.5,30.18,WNW,299,6.0,26.0,63,0.00,,,0.00,Wunderground v.1.15,2013-01-20 23:06:00,
2013-01-20 18:07:00,19.0,8.5,30.18,WSW,254,6.0,26.0,63,0.00,,,0.00,Wunderground v.1.15,2013-01-20 23:07:00,
2013-01-20 18:10:00,18.9,7.7,30.18,WSW,252,7.0,26.0,61,0.00,,,0.00,Wunderground v.1.15,2013-01-20 23:10:00,
2013-01-20 18:12:00,18.8,7.9,30.18,West,273,7.0,26.0,62,0.00,,,0.00,Wunderground v.1.15,2013-01-20 23:12:00,
2013-01-20 18:14:00,18.9,8.4,30.18,West,263,6.0,26.0,63,0.00,,,0.00,Wunderground v.1.15,2013-01-20 23:14:00,
2013-01-20 18:15:00,18.9,8.0,30.18,West,270,6.0,26.0,62,0.00,,,0.00,Wunderground v.1.15,2013-01-20 23:15:00,
2013-01-20 18:19:00,18.8,7.9,30.18,WNW,289,7.0,26.0,62,0.00,,,0.00,Wunderground v.1.15,2013-01-20 23:19:00,
2013-01-20 18:20:00,18.8,7.6,30.18,West,270,6.0,26.0,61,0.00,,,0.00,Wunderground v.1.15,2013-01-20 23:20:00,
2013-01-20 18:21:00,18.7,7.5,30.18,WSW,246,6.0,26.0,61,0.00,,,0.00,Wunderground v.1.15,2013-01-20 23:21:00,
2013-01-20 18:25:00,18.7,7.8,30.18,West,261,7.0,26.0,62,0.00,,,0.00,Wunderground v.1.15,2013-01-20 23:25:00,
2013-01-20 18:27:00,18.7,7.8,30.18,NW,325,7.0,26.0,62,0.00,,,0.00,Wunderground v.1.15,2013-01-20 23:27:00,
2013-01-20 18:31:00,18.8,7.9,30.18,West,264,6.0,26.0,62,0.00,,,0.00,Wunderground v.1.15,2013-01-20 23:31:00,
2013-01-20 18:33:00,18.8,8.3,30.18,WNW,291,6.0,26.0,63,0.00,,,0.00,Wunderground v.1.15,2013-01-20 23:33:00,
2013-01-20 18:35:00,18.7,8.2,30.18,NW,313,5.0,26.0,63,0.00,,,0.00,Wunderground v.1.15,2013-01-20 23:35:00,
2013-01-20 18:38:00,18.7,7.8,30.18,WNW,287,6.0,26.0,62,0.00,,,0.00,Wunderground v.1.15,2013-01-20 23:38:00,
2013-01-20 18:39:00,18.7,7.8,30.18,West,268,6.0,6.0,62,0.00,,,0.00,Wunderground v.1.15,2013-01-20 23:39:00,
2013-01-20 18:42:00,18.6,8.1,30.18,WNW,287,6.0,26.0,63,0.00,,,0.00,Wunderground v.1.15,2013-01-20 23:42:00,
2013-01-20 18:44:00,18.7,8.2,30.18,NW,308,6.0,26.0,63,0.00,,,0.00,Wunderground v.1.15,2013-01-20 23:44:00,
2013-01-20 18:47:00,18.7,8.2,30.18,West,279,6.0,26.0,63,0.00,,,0.00,Wunderground v.1.15,2013-01-20 23:47:00,
2013-01-20 18:48:00,18.6,8.1,30.18,NW,306,5.0,26.0,63,0.00,,,0.00,Wunderground v.1.15,2013-01-20 23:48:00,
2013-01-20 18:49:00,18.6,8.1,30.18,West,279,5.0,26.0,63,0.00,,,0.00,Wunderground v.1.15,2013-01-20 23:49:00,
2013-01-20 18:51:00,18.6,8.1,30.18,WSW,256,5.0,26.0,63,0.00,,,0.00,Wunderground v.1.15,2013-01-20 23:51:00,
2013-01-20 18:53:00,18.7,7.8,30.18,West,278,6.0,26.0,62,0.00,,,0.00,Wunderground v.1.15,2013-01-20 23:53:00,
2013-01-20 18:54:00,18.6,7.7,30.18,WNW,284,7.0,26.0,62,0.00,,,0.00,Wunderground v.1.15,2013-01-20 23:54:00,
2013-01-20 18:56:00,18.6,7.7,30.18,SW,231,7.0,26.0,62,0.00,,,0.00,Wunderground v.1.15,2013-01-20 23:56:00,
2013-01-20 19:02:00,18.5,7.6,30.19,NNW,331,8.0,26.0,62,0.00,,,0.00,Wunderground v.1.15,2013-01-21 00:02:00,
2013-01-20 19:05:00,18.4,7.9,30.19,West,273,8.0,26.0,63,0.00,,,0.00,Wunderground v.1.15,2013-01-21 00:05:00,
2013-01-20 19:09:00,18.3,7.8,30.19,West,262,6.0,26.0,63,0.00,,,0.00,Wunderground v.1.15,2013-01-21 00:09:00,
2013-01-20 19:10:00,18.3,7.8,30.19,West,270,6.0,26.0,63,0.00,,,0.00,Wunderground v.1.15,2013-01-21 00:10:00,
2013-01-20 19:12:00,18.3,7.8,30.19,WSW,251,6.0,26.0,63,0.00,,,0.00,Wunderground v.1.15,2013-01-21 00:12:00,
2013-01-20 19:13:00,18.3,7.8,30.19,West,277,6.0,26.0,63,0.00,,,0.00,Wunderground v.1.15,2013-01-21 00:13:00,
2013-01-20 19:16:00,18.2,7.3,30.19,West,277,7.0,26.0,62,0.00,,,0.00,Wunderground v.1.15,2013-01-21 00:16:00,
2013-01-20 19:17:00,18.1,7.3,30.19,West,261,7.0,26.0,62,0.00,,,0.00,Wunderground v.1.15,2013-01-21 00:17:00,
2013-01-20 19:21:00,18.2,7.7,30.19,WNW,299,8.0,12.0,63,0.00,,,0.00,Wunderground v.1.15,2013-01-21 00:21:00,
2013-01-20 19:24:00,18.1,6.9,30.19,WNW,284,8.0,26.0,61,0.00,,,0.00,Wunderground v.1.15,2013-01-21 00:24:00,
2013-01-20 19:25:00,18.0,6.8,30.19,West,268,8.0,26.0,61,0.00,,,0.00,Wunderground v.1.15,2013-01-21 00:25:00,
2013-01-20 19:26:00,18.1,7.3,30.19,NNW,339,8.0,26.0,62,0.00,,,0.00,Wunderground v.1.15,2013-01-21 00:26:00,
2013-01-20 19:28:00,18.1,7.3,30.19,West,278,8.0,26.0,62,0.00,,,0.00,Wunderground v.1.15,2013-01-21 00:28:00,
2013-01-20 19:30:00,18.0,7.2,30.19,NW,314,7.0,26.0,62,0.00,,,0.00,Wunderground v.1.15,2013-01-21 00:30:00,
2013-01-20 19:33:00,18.0,6.8,30.20,SW,223,7.0,26.0,61,0.00,,,0.00,Wunderground v.1.15,2013-01-21 00:33:00,
2013-01-20 19:34:00,17.9,6.7,30.20,WNW,289,7.0,26.0,61,0.00,,,0.00,Wunderground v.1.15,2013-01-21 00:34:00,
2013-01-20 19:35:00,17.9,6.7,30.20,West,276,7.0,26.0,61,0.00,,,0.00,Wunderground v.1.15,2013-01-21 00:35:00,
2013-01-20 19:37:00,17.9,6.7,30.20,WNW,296,7.0,26.0,61,0.00,,,0.00,Wunderground v.1.15,2013-01-21 00:37:00,
2013-01-20 19:39:00,17.9,7.1,30.20,WNW,282,7.0,26.0,62,0.00,,,0.00,Wunderground v.1.15,2013-01-21 00:39:00,
2013-01-20 19:41:00,17.9,7.1,30.20,West,269,7.0,26.0,62,0.00,,,0.00,Wunderground v.1.15,2013-01-21 00:41:00,
2013-01-20 19:45:00,17.9,7.1,30.19,WNW,291,7.0,26.0,62,0.00,,,0.00,Wunderground v.1.15,2013-01-21 00:45:00,
2013-01-20 19:50:00,17.9,7.4,30.19,West,275,6.0,6.0,63,0.00,,,0.00,Wunderground v.1.15,2013-01-21 00:50:00,
2013-01-20 19:51:00,17.9,7.1,30.19,West,273,5.0,26.0,62,0.00,,,0.00,Wunderground v.1.15,2013-01-21 00:51:00,
2013-01-20 19:56:00,17.8,7.0,30.19,West,263,5.0,26.0,62,0.00,,,0.00,Wunderground v.1.15,2013-01-21 00:56:00,
2013-01-20 19:58:00,17.8,7.0,30.19,West,276,5.0,26.0,62,0.00,,,0.00,Wunderground v.1.15,2013-01-21 00:58:00,
2013-01-20 20:00:00,17.8,7.0,30.19,West,277,6.0,26.0,62,0.00,,,0.00,Wunderground v.1.15,2013-01-21 01:00:00,
2013-01-20 20:02:00,17.8,7.0,30.19,West,268,7.0,26.0,62,0.00,,,0.00,Wunderground v.1.15,2013-01-21 01:02:00,
2013-01-20 20:03:00,17.7,6.9,30.19,WNW,289,6.0,26.0,62,0.00,,,0.00,Wunderground v.1.15,2013-01-21 01:03:00,
2013-01-20 20:07:00,17.7,6.9,30.19,West,270,7.0,26.0,62,0.00,,,0.00,Wunderground v.1.15,2013-01-21 01:07:00,
2013-01-20 20:08:00,17.7,6.5,30.19,SW,230,7.0,26.0,61,0.00,,,0.00,Wunderground v.1.15,2013-01-21 01:08:00,
2013-01-20 20:11:00,17.7,6.5,30.19,WNW,291,7.0,26.0,61,0.00,,,0.00,Wunderground v.1.15,2013-01-21 01:11:00,
2013-01-20 20:14:00,17.7,6.5,30.19,WNW,284,7.0,26.0,61,0.00,,,0.00,Wunderground v.1.15,2013-01-21 01:14:00,
2013-01-20 20:16:00,17.7,6.5,30.19,West,263,7.0,26.0,61,0.00,,,0.00,Wunderground v.1.15,2013-01-21 01:16:00,
2013-01-20 20:18:00,17.8,6.6,30.19,West,263,7.0,26.0,61,0.00,,,0.00,Wunderground v.1.15,2013-01-21 01:18:00,
2013-01-20 20:21:00,17.7,6.5,30.19,West,271,6.0,26.0,61,0.00,,,0.00,Wunderground v.1.15,2013-01-21 01:21:00,
2013-01-20 20:23:00,17.7,6.5,30.19,WNW,284,6.0,26.0,61,0.00,,,0.00,Wunderground v.1.15,2013-01-21 01:23:00,
2013-01-20 20:27:00,17.7,6.9,30.19,NW,304,7.0,26.0,62,0.00,,,0.00,Wunderground v.1.15,2013-01-21 01:27:00,
2013-01-20 20:29:00,17.7,6.9,30.19,WNW,287,6.0,26.0,62,0.00,,,0.00,Wunderground v.1.15,2013-01-21 01:29:00,
2013-01-20 20:32:00,17.6,6.4,30.19,WNW,289,7.0,26.0,61,0.00,,,0.00,Wunderground v.1.15,2013-01-21 01:32:00,
2013-01-20 20:33:00,17.6,6.8,30.19,WSW,242,6.0,26.0,62,0.00,,,0.00,Wunderground v.1.15,2013-01-21 01:33:00,
2013-01-20 20:36:00,17.7,7.2,30.19,West,266,6.0,26.0,63,0.00,,,0.00,Wunderground v.1.15,2013-01-21 01:36:00,
2013-01-20 20:38:00,17.7,7.6,30.19,WSW,252,6.0,26.0,64,0.00,,,0.00,Wunderground v.1.15,2013-01-21 01:38:00,
2013-01-20 20:39:00,17.7,7.6,30.19,West,268,6.0,26.0,64,0.00,,,0.00,Wunderground v.1.15,2013-01-21 01:39:00,
2013-01-20 20:43:00,17.7,6.9,30.19,WSW,255,6.0,26.0,62,0.00,,,0.00,Wunderground v.1.15,2013-01-21 01:43:00,
2013-01-20 20:44:00,17.6,6.8,30.19,SW,216,6.0,26.0,62,0.00,,,0.00,Wunderground v.1.15,2013-01-21 01:44:00,
2013-01-20 20:47:00,17.5,7.0,30.19,WNW,297,6.0,26.0,63,0.00,,,0.00,Wunderground v.1.15,2013-01-21 01:47:00,
2013-01-20 20:52:00,17.3,6.8,30.19,West,263,5.0,26.0,63,0.00,,,0.00,Wunderground v.1.15,2013-01-21 01:52:00,
2013-01-20 20:55:00,17.2,7.1,30.19,SW,223,5.0,26.0,64,0.00,,,0.00,Wunderground v.1.15,2013-01-21 01:55:00,
2013-01-20 20:56:00,17.1,6.7,30.19,WNW,295,5.0,26.0,63,0.00,,,0.00,Wunderground v.1.15,2013-01-21 01:56:00,
2013-01-20 21:00:00,16.9,6.8,30.19,West,271,5.0,5.0,64,0.00,,,0.00,Wunderground v.1.15,2013-01-21 02:00:00,
2013-01-20 21:02:00,16.8,6.4,30.19,WNW,296,5.0,26.0,63,0.00,,,0.00,Wunderground v.1.15,2013-01-21 02:02:00,
2013-01-20 21:04:00,16.7,6.3,30.19,SW,219,5.0,26.0,63,0.00,,,0.00,Wunderground v.1.15,2013-01-21 02:04:00,
2013-01-20 21:05:00,16.7,6.6,30.19,NNE,18,5.0,26.0,64,0.00,,,0.00,Wunderground v.1.15,2013-01-21 02:05:00,
2013-01-20 21:08:00,16.7,6.6,30.19,West,273,4.0,26.0,64,0.00,,,0.00,Wunderground v.1.15,2013-01-21 02:08:00,
2013-01-20 21:09:00,16.6,6.5,30.19,NW,310,4.0,4.0,64,0.00,,,0.00,Wunderground v.1.15,2013-01-21 02:09:00,
2013-01-20 21:10:00,16.6,6.5,30.19,NNW,332,4.0,26.0,64,0.00,,,0.00,Wunderground v.1.15,2013-01-21 02:10:00,
2013-01-20 21:13:00,16.6,6.9,30.19,West,277,4.0,26.0,65,0.00,,,0.00,Wunderground v.1.15,2013-01-21 02:13:00,
2013-01-20 21:14:00,16.6,6.9,30.19,West,275,4.0,26.0,65,0.00,,,0.00,Wunderground v.1.15,2013-01-21 02:14:00,
2013-01-20 21:16:00,16.6,7.2,30.19,WSW,246,4.0,26.0,66,0.00,,,0.00,Wunderground v.1.15,2013-01-21 02:16:00,
2013-01-20 21:20:00,16.7,7.3,30.19,NW,325,3.0,26.0,66,0.00,,,0.00,Wunderground v.1.15,2013-01-21 02:20:00,
2013-01-20 21:21:00,16.6,6.9,30.19,WNW,303,3.0,26.0,65,0.00,,,0.00,Wunderground v.1.15,2013-01-21 02:21:00,
2013-01-20 21:22:00,16.6,6.9,30.19,West,274,3.0,26.0,65,0.00,,,0.00,Wunderground v.1.15,2013-01-21 02:22:00,
2013-01-20 21:25:00,16.5,6.8,30.19,WNW,283,4.0,26.0,65,0.00,,,0.00,Wunderground v.1.15,2013-01-21 02:25:00,
2013-01-20 21:29:00,16.5,7.1,30.19,NW,305,4.0,4.0,66,0.00,,,0.00,Wunderground v.1.15,2013-01-21 02:29:00,
2013-01-20 21:30:00,16.5,7.1,30.19,West,274,4.0,5.0,66,0.00,,,0.00,Wunderground v.1.15,2013-01-21 02:30:00,
2013-01-20 21:31:00,16.5,7.1,30.20,NE,38,4.0,26.0,66,0.00,,,0.00,Wunderground v.1.15,2013-01-21 02:31:00,
2013-01-20 21:33:00,16.5,7.1,30.19,WNW,291,4.0,26.0,66,0.00,,,0.00,Wunderground v.1.15,2013-01-21 02:33:00,
2013-01-20 21:37:00,16.5,7.1,30.19,West,263,3.0,26.0,66,0.00,,,0.00,Wunderground v.1.15,2013-01-21 02:37:00,
2013-01-20 21:38:00,16.5,7.1,30.19,West,269,3.0,26.0,66,0.00,,,0.00,Wunderground v.1.15,2013-01-21 02:38:00,
2013-01-20 21:39:00,16.5,7.1,30.19,West,264,3.0,3.0,66,0.00,,,0.00,Wunderground v.1.15,2013-01-21 02:39:00,
2013-01-20 21:41:00,16.6,7.2,30.19,West,274,3.0,26.0,66,0.00,,,0.00,Wunderground v.1.15,2013-01-21 02:41:00,
2013-01-20 21:43:00,16.6,7.2,30.19,West,277,4.0,26.0,66,0.00,,,0.00,Wunderground v.1.15,2013-01-21 02:43:00,
2013-01-20 21:45:00,16.5,7.1,30.19,West,275,4.0,26.0,66,0.00,,,0.00,Wunderground v.1.15,2013-01-21 02:45:00,
2013-01-20 21:47:00,16.5,7.1,30.19,West,281,4.0,26.0,66,0.00,,,0.00,Wunderground v.1.15,2013-01-21 02:47:00,
2013-01-20 21:50:00,16.4,6.7,30.20,North,5,5.0,5.0,65,0.00,,,0.00,Wunderground v.1.15,2013-01-21 02:50:00,
2013-01-20 21:51:00,16.5,6.8,30.20,West,277,5.0,7.0,65,0.00,,,0.00,Wunderground v.1.15,2013-01-21 02:51:00,
2013-01-20 21:54:00,16.4,6.7,30.19,West,267,5.0,26.0,65,0.00,,,0.00,Wunderground v.1.15,2013-01-21 02:54:00,
2013-01-20 21:57:00,16.5,7.1,30.19,West,264,5.0,26.0,66,0.00,,,0.00,Wunderground v.1.15,2013-01-21 02:57:00,
2013-01-20 21:58:00,16.5,7.1,30.19,West,266,5.0,26.0,66,0.00,,,0.00,Wunderground v.1.15,2013-01-21 02:58:00,
2013-01-20 22:02:00,16.4,6.7,30.19,West,280,5.0,26.0,65,0.00,,,0.00,Wunderground v.1.15,2013-01-21 03:02:00,
2013-01-20 22:03:00,16.4,6.7,30.19,WNW,291,5.0,26.0,65,0.00,,,0.00,Wunderground v.1.15,2013-01-21 03:03:00,
2013-01-20 22:05:00,16.4,6.7,30.19,WNW,303,5.0,26.0,65,0.00,,,0.00,Wunderground v.1.15,2013-01-21 03:05:00,
2013-01-20 22:08:00,16.5,6.8,30.19,West,266,5.0,26.0,65,0.00,,,0.00,Wunderground v.1.15,2013-01-21 03:08:00,
2013-01-20 22:09:00,16.5,6.8,30.19,West,277,6.0,26.0,65,0.00,,,0.00,Wunderground v.1.15,2013-01-21 03:09:00,
2013-01-20 22:10:00,16.4,6.3,30.19,West,273,6.0,26.0,64,0.00,,,0.00,Wunderground v.1.15,2013-01-21 03:10:00,
2013-01-20 22:13:00,16.4,6.3,30.19,West,273,6.0,26.0,64,0.00,,,0.00,Wunderground v.1.15,2013-01-21 03:13:00,
2013-01-20 22:16:00,16.4,6.3,30.19,WSW,250,5.0,26.0,64,0.00,,,0.00,Wunderground v.1.15,2013-01-21 03:16:00,
2013-01-20 22:17:00,16.4,6.7,30.19,WNW,302,5.0,26.0,65,0.00,,,0.00,Wunderground v.1.15,2013-01-21 03:17:00,
2013-01-20 22:18:00,16.5,6.8,30.19,West,268,5.0,26.0,65,0.00,,,0.00,Wunderground v.1.15,2013-01-21 03:18:00,
2013-01-20 22:24:00,16.4,6.3,30.19,West,262,4.0,26.0,64,0.00,,,0.00,Wunderground v.1.15,2013-01-21 03:24:00,
2013-01-20 22:25:00,16.4,6.3,30.19,West,269,5.0,26.0,64,0.00,,,0.00,Wunderground v.1.15,2013-01-21 03:25:00,
2013-01-20 22:27:00,16.4,6.0,30.19,West,263,5.0,26.0,63,0.00,,,0.00,Wunderground v.1.15,2013-01-21 03:27:00,
2013-01-20 22:29:00,16.3,6.2,30.19,West,276,6.0,26.0,64,0.00,,,0.00,Wunderground v.1.15,2013-01-21 03:29:00,
2013-01-20 22:30:00,16.3,6.6,30.19,NW,314,6.0,6.0,65,0.00,,,0.00,Wunderground v.1.15,2013-01-21 03:30:00,
2013-01-20 22:31:00,16.3,6.6,30.19,WNW,299,6.0,26.0,65,0.00,,,0.00,Wunderground v.1.15,2013-01-21 03:31:00,
2013-01-20 22:34:00,16.4,6.7,30.19,West,271,6.0,26.0,65,0.00,,,0.00,Wunderground v.1.15,2013-01-21 03:34:00,
2013-01-20 22:35:00,16.4,6.7,30.19,West,280,6.0,26.0,65,0.00,,,0.00,Wunderground v.1.15,2013-01-21 03:35:00,
2013-01-20 22:39:00,16.4,6.7,30.20,West,281,4.0,26.0,65,0.00,,,0.00,Wunderground v.1.15,2013-01-21 03:39:00,
2013-01-20 22:42:00,16.3,6.6,30.20,West,273,4.0,26.0,65,0.00,,,0.00,Wunderground v.1.15,2013-01-21 03:42:00,
2013-01-20 22:43:00,16.3,6.6,30.20,WSW,258,5.0,26.0,65,0.00,,,0.00,Wunderground v.1.15,2013-01-21 03:43:00,
2013-01-20 22:45:00,16.3,6.6,30.20,North,3,5.0,26.0,65,0.00,,,0.00,Wunderground v.1.15,2013-01-21 03:45:00,
2013-01-20 22:47:00,16.2,6.5,30.20,West,281,6.0,26.0,65,0.00,,,0.00,Wunderground v.1.15,2013-01-21 03:47:00,
2013-01-20 22:52:00,16.2,6.8,30.19,West,280,6.0,26.0,66,0.00,,,0.00,Wunderground v.1.15,2013-01-21 03:52:00,
2013-01-20 22:53:00,16.1,6.7,30.19,WNW,282,6.0,26.0,66,0.00,,,0.00,Wunderground v.1.15,2013-01-21 03:53:00,
2013-01-20 22:57:00,16.0,6.3,30.19,WNW,291,5.0,26.0,65,0.00,,,0.00,Wunderground v.1.15,2013-01-21 03:57:00,
2013-01-20 22:58:00,16.0,6.3,30.19,West,260,5.0,26.0,65,0.00,,,0.00,Wunderground v.1.15,2013-01-21 03:58:00,
2013-01-20 23:00:00,16.0,6.3,30.19,West,279,5.0,5.0,65,0.00,,,0.00,Wunderground v.1.15,2013-01-21 04:00:00,
2013-01-20 23:03:00,16.0,6.6,30.19,West,275,5.0,26.0,66,0.00,,,0.00,Wunderground v.1.15,2013-01-21 04:03:00,
2013-01-20 23:05:00,16.0,6.6,30.19,WSW,253,5.0,26.0,66,0.00,,,0.00,Wunderground v.1.15,2013-01-21 04:05:00,
2013-01-20 23:06:00,16.0,6.6,30.19,West,270,4.0,26.0,66,0.00,,,0.00,Wunderground v.1.15,2013-01-21 04:06:00,
2013-01-20 23:08:00,16.0,6.6,30.19,West,281,4.0,26.0,66,0.00,,,0.00,Wunderground v.1.15,2013-01-21 04:08:00,
2013-01-20 23:10:00,16.0,7.0,30.19,West,270,4.0,26.0,67,0.00,,,0.00,Wunderground v.1.15,2013-01-21 04:10:00,
2013-01-20 23:13:00,16.1,7.1,30.19,West,261,4.0,26.0,67,0.00,,,0.00,Wunderground v.1.15,2013-01-21 04:13:00,
2013-01-20 23:17:00,16.1,7.1,30.19,WNW,291,5.0,26.0,67,0.00,,,0.00,Wunderground v.1.15,2013-01-21 04:17:00,
2013-01-20 23:19:00,16.1,7.1,30.19,West,268,5.0,26.0,67,0.00,,,0.00,Wunderground v.1.15,2013-01-21 04:19:00,
2013-01-20 23:20:00,16.1,7.1,30.19,West,276,6.0,8.0,67,0.00,,,0.00,Wunderground v.1.15,2013-01-21 04:20:00,
2013-01-20 23:24:00,16.2,7.5,30.19,West,281,7.0,26.0,68,0.00,,,0.00,Wunderground v.1.15,2013-01-21 04:24:00,
2013-01-20 23:28:00,16.2,7.5,30.19,WSW,255,8.0,26.0,68,0.00,,,0.00,Wunderground v.1.15,2013-01-21 04:28:00,
2013-01-20 23:30:00,16.2,6.8,30.19,WNW,284,9.0,26.0,66,0.00,,,0.00,Wunderground v.1.15,2013-01-21 04:30:00,
2013-01-20 23:33:00,16.1,6.4,30.19,WNW,283,10.0,26.0,65,0.00,,,0.00,Wunderground v.1.15,2013-01-21 04:33:00,
2013-01-20 23:37:00,16.0,6.3,30.19,WNW,285,11.0,26.0,65,0.00,,,0.00,Wunderground v.1.15,2013-01-21 04:37:00,
2013-01-20 23:40:00,15.9,6.2,30.18,West,275,10.0,26.0,65,0.00,,,0.00,Wunderground v.1.15,2013-01-21 04:40:00,
2013-01-20 23:42:00,15.9,5.9,30.18,West,275,9.0,26.0,64,0.00,,,0.00,Wunderground v.1.15,2013-01-21 04:42:00,
2013-01-20 23:44:00,15.9,5.9,30.18,West,275,9.0,26.0,64,0.00,,,0.00,Wunderground v.1.15,2013-01-21 04:44:00,
2013-01-20 23:45:00,15.9,6.2,30.18,WNW,283,8.0,26.0,65,0.00,,,0.00,Wunderground v.1.15,2013-01-21 04:45:00,
2013-01-20 23:48:00,15.9,6.2,30.19,West,271,8.0,26.0,65,0.00,,,0.00,Wunderground v.1.15,2013-01-21 04:48:00,
2013-01-20 23:52:00,15.8,6.8,30.19,NW,315,6.0,26.0,67,0.00,,,0.00,Wunderground v.1.15,2013-01-21 04:52:00,
2013-01-20 23:53:00,15.8,7.1,30.19,NW,312,6.0,26.0,68,0.00,,,0.00,Wunderground v.1.15,2013-01-21 04:53:00,
2013-01-20 23:57:00,15.7,6.7,30.18,West,281,5.0,26.0,67,0.00,,,0.00,Wunderground v.1.15,2013-01-21 04:57:00,
2013-01-20 23:58:00,15.7,7.0,30.18,NW,318,4.0,26.0,68,0.00,,,0.00,Wunderground v.1.15,2013-01-21 04:58:00,